Time,TemperatureF,DewpointF,PressureIn,WindDirection,WindDirectionDegrees,WindSpeedMPH,WindSpeedGustMPH,Humidity,HourlyPrecipIn,Conditions,Clouds,dailyrainin,SoftwareType,DateUTC
2013-04-23 00:01:00,40.0,33.0,-100.00,SSW,195,0.0,0.0,76,-99.99,,,-99.99,,2013-04-23 06:01:00,
2013-04-23 00:12:00,40.0,35.0,-100.00,SSE,150,0.0,2.0,80,-99.99,,,-99.99,,2013-04-23 06:12:00,
2013-04-23 00:21:00,40.0,35.0,-100.00,SSE,150,0.0,2.0,80,-99.99,,,-99.99,,2013-04-23 06:21:00,
2013-04-23 00:32:00,40.0,35.0,-100.00,ENE,60,0.0,2.0,83,-99.99,,,-99.99,,2013-04-23 06:32:00,
2013-04-23 00:41:00,40.0,35.0,-100.00,ENE,60,0.0,2.0,83,-99.99,,,-99.99,,2013-04-23 06:41:00,
2013-04-23 00:52:00,39.0,35.0,-100.00,SW,215,2.0,4.0,84,-99.99,,,-99.99,,2013-04-23 06:52:00,
2013-04-23 01:02:00,39.0,35.0,-100.00,SW,215,2.0,4.0,84,-99.99,,,-99.99,,2013-04-23 07:02:00,
2013-04-23 01:11:00,39.0,35.0,-100.00,SW,215,2.0,4.0,84,-99.99,,,-99.99,,2013-04-23 07:11:00,
2013-04-23 01:21:00,39.0,35.0,-100.00,SW,215,2.0,4.0,84,-99.99,,,-99.99,,2013-04-23 07:21:00,
2013-04-23 01:32:00,39.0,35.0,-100.00,East,85,2.0,6.0,86,-99.99,,,-99.99,,2013-04-23 07:32:00,
2013-04-23 01:42:00,39.0,35.0,-100.00,East,85,2.0,6.0,86,-99.99,,,-99.99,,2013-04-23 07:42:00,
2013-04-23 01:52:00,38.0,35.0,-100.00,ENE,75,1.0,7.0,87,-99.99,,,-99.99,,2013-04-23 07:52:00,
2013-04-23 02:01:00,38.0,35.0,-100.00,ENE,75,1.0,7.0,87,-99.99,,,-99.99,,2013-04-23 08:01:00,
2013-04-23 02:11:00,38.0,35.0,-100.00,East,80,2.0,6.0,87,-99.99,,,-99.99,,2013-04-23 08:11:00,
2013-04-23 02:21:00,38.0,35.0,-100.00,East,80,2.0,6.0,87,-99.99,,,-99.99,,2013-04-23 08:21:00,
2013-04-23 02:31:00,37.0,34.0,-100.00,NE,50,1.0,5.0,87,-99.99,,,-99.99,,2013-04-23 08:31:00,
2013-04-23 02:42:00,37.0,34.0,-100.00,NE,50,1.0,5.0,87,-99.99,,,-99.99,,2013-04-23 08:42:00,
2013-04-23 02:52:00,37.0,34.0,-100.00,NE,45,1.0,5.0,88,-99.99,,,-99.99,,2013-04-23 08:52:00,
2013-04-23 03:01:00,37.0,34.0,-100.00,NE,45,1.0,5.0,88,-99.99,,,-99.99,,2013-04-23 09:01:00,
2013-04-23 03:11:00,36.0,33.0,-100.00,ENE,60,1.0,6.0,90,-99.99,,,-99.99,,2013-04-23 09:11:00,
2013-04-23 03:21:00,36.0,33.0,-100.00,ENE,60,1.0,6.0,90,-99.99,,,-99.99,,2013-04-23 09:21:00,
2013-04-23 03:32:00,35.0,33.0,-100.00,ENE,60,1.0,5.0,92,-99.99,,,-99.99,,2013-04-23 09:32:00,
2013-04-23 03:42:00,35.0,33.0,-100.00,ENE,60,1.0,5.0,92,-99.99,,,-99.99,,2013-04-23 09:42:00,
2013-04-23 03:52:00,35.0,33.0,-100.00,ENE,60,1.0,5.0,92,-99.99,,,-99.99,,2013-04-23 09:52:00,
2013-04-23 04:02:00,35.0,33.0,-100.00,ENE,60,1.0,5.0,92,-99.99,,,-99.99,,2013-04-23 10:02:00,
2013-04-23 04:12:00,34.0,32.0,-100.00,NE,40,1.0,6.0,94,-99.99,,,-99.99,,2013-04-23 10:12:00,
2013-04-23 04:22:00,34.0,32.0,-100.00,NE,40,1.0,6.0,94,-99.99,,,-99.99,,2013-04-23 10:22:00,
2013-04-23 04:32:00,33.0,32.0,-100.00,ENE,70,1.0,4.0,94,-99.99,,,-99.99,,2013-04-23 10:32:00,
2013-04-23 04:42:00,33.0,32.0,-100.00,ENE,70,1.0,4.0,94,-99.99,,,-99.99,,2013-04-23 10:42:00,
2013-04-23 04:52:00,33.0,32.0,-100.00,ENE,70,1.0,8.0,95,-99.99,,,-99.99,,2013-04-23 10:52:00,
2013-04-23 05:02:00,33.0,32.0,-100.00,ENE,70,1.0,8.0,95,-99.99,,,-99.99,,2013-04-23 11:02:00,
2013-04-23 05:12:00,33.0,32.0,-100.00,ENE,70,1.0,8.0,95,-99.99,,,-99.99,,2013-04-23 11:12:00,
2013-04-23 05:21:00,33.0,32.0,-100.00,ENE,70,1.0,8.0,95,-99.99,,,-99.99,,2013-04-23 11:21:00,
2013-04-23 05:32:00,32.0,31.0,-100.00,NE,35,6.0,10.0,96,-99.99,,,-99.99,,2013-04-23 11:32:00,
2013-04-23 05:43:00,32.0,31.0,-100.00,NE,35,6.0,10.0,96,-99.99,,,-99.99,,2013-04-23 11:43:00,
2013-04-23 05:53:00,32.0,31.0,-100.00,ENE,60,1.0,5.0,95,-99.99,,,-99.99,,2013-04-23 11:53:00,
2013-04-23 06:02:00,32.0,31.0,-100.00,ENE,60,1.0,5.0,95,-99.99,,,-99.99,,2013-04-23 12:02:00,
2013-04-23 06:12:00,32.0,31.0,-100.00,ENE,70,1.0,3.0,96,-99.99,,,-99.99,,2013-04-23 12:12:00,
2013-04-23 06:22:00,32.0,31.0,-100.00,ENE,70,1.0,3.0,96,-99.99,,,-99.99,,2013-04-23 12:22:00,
2013-04-23 06:32:00,32.0,31.0,-100.00,ENE,70,1.0,4.0,96,-99.99,,,-99.99,,2013-04-23 12:32:00,
2013-04-23 06:41:00,32.0,31.0,-100.00,ENE,70,1.0,4.0,96,-99.99,,,-99.99,,2013-04-23 12:41:00,
2013-04-23 06:51:00,32.0,31.0,-100.00,ESE,105,0.0,3.0,96,-99.99,,,-99.99,,2013-04-23 12:51:00,
2013-04-23 07:01:00,32.0,31.0,-100.00,ESE,105,0.0,3.0,96,-99.99,,,-99.99,,2013-04-23 13:01:00,
2013-04-23 07:11:00,32.0,31.0,-100.00,ESE,105,0.0,3.0,96,-99.99,,,-99.99,,2013-04-23 13:11:00,
2013-04-23 07:21:00,31.0,29.0,-100.00,WSW,240,7.0,9.0,96,-99.99,,,-99.99,,2013-04-23 13:21:00,
2013-04-23 07:32:00,31.0,29.0,-100.00,WSW,240,7.0,9.0,96,-99.99,,,-99.99,,2013-04-23 13:32:00,
2013-04-23 07:42:00,30.0,29.0,-100.00,WSW,245,7.0,11.0,96,-99.99,,,-99.99,,2013-04-23 13:42:00,
2013-04-23 07:52:00,30.0,29.0,-100.00,WSW,245,7.0,11.0,96,-99.99,,,-99.99,,2013-04-23 13:52:00,
2013-04-23 08:01:00,29.0,28.0,-100.00,SW,235,5.0,11.0,93,-99.99,,,-99.99,,2013-04-23 14:01:00,
2013-04-23 08:11:00,29.0,28.0,-100.00,SW,235,5.0,11.0,93,-99.99,,,-99.99,,2013-04-23 14:11:00,
2013-04-23 08:22:00,29.0,27.0,-100.00,SW,220,7.0,12.0,92,-99.99,,,-99.99,,2013-04-23 14:22:00,
2013-04-23 08:31:00,29.0,27.0,-100.00,SW,220,7.0,12.0,92,-99.99,,,-99.99,,2013-04-23 14:31:00,
2013-04-23 08:42:00,30.0,27.0,-100.00,SW,235,6.0,10.0,87,-99.99,,,-99.99,,2013-04-23 14:42:00,
2013-04-23 08:52:00,30.0,27.0,-100.00,SW,235,6.0,10.0,87,-99.99,,,-99.99,,2013-04-23 14:52:00,
2013-04-23 09:01:00,30.0,27.0,-100.00,SW,235,6.0,10.0,87,-99.99,,,-99.99,,2013-04-23 15:01:00,
2013-04-23 09:12:00,29.0,26.0,-100.00,SW,215,6.0,11.0,85,-99.99,,,-99.99,,2013-04-23 15:12:00,
2013-04-23 09:21:00,30.0,25.0,-100.00,WSW,240,7.0,12.0,82,-99.99,,,-99.99,,2013-04-23 15:21:00,
2013-04-23 09:32:00,31.0,25.0,-100.00,SW,235,9.0,12.0,78,-99.99,,,-99.99,,2013-04-23 15:32:00,
2013-04-23 09:42:00,31.0,25.0,-100.00,SW,235,9.0,12.0,78,-99.99,,,-99.99,,2013-04-23 15:42:00,
2013-04-23 09:52:00,31.0,24.0,-100.00,SW,220,7.0,14.0,74,-99.99,,,-99.99,,2013-04-23 15:52:00,
2013-04-23 10:02:00,31.0,24.0,-100.00,SW,220,7.0,14.0,74,-99.99,,,-99.99,,2013-04-23 16:02:00,
2013-04-23 10:12:00,32.0,24.0,-100.00,SW,225,5.0,14.0,70,-99.99,,,-99.99,,2013-04-23 16:12:00,
2013-04-23 10:23:00,32.0,24.0,-100.00,SW,225,5.0,14.0,70,-99.99,,,-99.99,,2013-04-23 16:23:00,
2013-04-23 10:33:00,34.0,23.0,-100.00,SW,225,8.0,16.0,62,-99.99,,,-99.99,,2013-04-23 16:33:00,
2013-04-23 10:42:00,34.0,23.0,-100.00,SW,225,8.0,16.0,62,-99.99,,,-99.99,,2013-04-23 16:42:00,
2013-04-23 10:52:00,35.0,23.0,-100.00,SW,220,9.0,16.0,60,-99.99,,,-99.99,,2013-04-23 16:52:00,
2013-04-23 11:02:00,35.0,23.0,-100.00,SW,220,9.0,16.0,60,-99.99,,,-99.99,,2013-04-23 17:02:00,
2013-04-23 11:11:00,36.0,22.0,-100.00,SW,220,6.0,14.0,55,-99.99,,,-99.99,,2013-04-23 17:11:00,
2013-04-23 11:22:00,36.0,22.0,-100.00,SW,220,6.0,14.0,55,-99.99,,,-99.99,,2013-04-23 17:22:00,
2013-04-23 11:32:00,37.0,21.0,-100.00,SW,220,8.0,16.0,52,-99.99,,,-99.99,,2013-04-23 17:32:00,
2013-04-23 11:42:00,37.0,21.0,-100.00,SW,220,8.0,16.0,52,-99.99,,,-99.99,,2013-04-23 17:42:00,
2013-04-23 11:53:00,37.0,21.0,-100.00,SW,235,9.0,14.0,50,-99.99,,,-99.99,,2013-04-23 17:53:00,
2013-04-23 12:02:00,37.0,21.0,-100.00,SW,235,9.0,14.0,50,-99.99,,,-99.99,,2013-04-23 18:02:00,
2013-04-23 12:12:00,38.0,20.0,-100.00,SW,220,7.0,12.0,48,-99.99,,,-99.99,,2013-04-23 18:12:00,
2013-04-23 12:22:00,38.0,20.0,-100.00,SW,220,7.0,12.0,48,-99.99,,,-99.99,,2013-04-23 18:22:00,
2013-04-23 12:31:00,38.0,19.0,-100.00,SW,220,7.0,13.0,46,-99.99,,,-99.99,,2013-04-23 18:31:00,
2013-04-23 12:42:00,38.0,19.0,-100.00,SW,220,7.0,13.0,46,-99.99,,,-99.99,,2013-04-23 18:42:00,
2013-04-23 12:52:00,40.0,19.0,-100.00,SW,220,9.0,16.0,41,-99.99,,,-99.99,,2013-04-23 18:52:00,
2013-04-23 13:02:00,40.0,19.0,-100.00,SW,220,9.0,16.0,41,-99.99,,,-99.99,,2013-04-23 19:02:00,
2013-04-23 13:11:00,41.0,18.0,-100.00,SSE,150,6.0,17.0,38,-99.99,,,-99.99,,2013-04-23 19:11:00,
2013-04-23 13:21:00,41.0,18.0,-100.00,SSE,150,6.0,17.0,38,-99.99,,,-99.99,,2013-04-23 19:21:00,
2013-04-23 13:32:00,40.0,16.0,-100.00,SSW,210,9.0,16.0,37,-99.99,,,-99.99,,2013-04-23 19:32:00,
2013-04-23 13:42:00,40.0,16.0,-100.00,SSW,210,9.0,16.0,37,-99.99,,,-99.99,,2013-04-23 19:42:00,
2013-04-23 13:51:00,40.0,16.0,-100.00,SSW,205,3.0,10.0,37,-99.99,,,-99.99,,2013-04-23 19:51:00,
2013-04-23 14:01:00,40.0,16.0,-100.00,SSW,205,3.0,10.0,37,-99.99,,,-99.99,,2013-04-23 20:01:00,
2013-04-23 14:11:00,40.0,15.0,-100.00,SW,215,6.0,10.0,35,-99.99,,,-99.99,,2013-04-23 20:11:00,
2013-04-23 14:21:00,40.0,15.0,-100.00,SW,215,6.0,10.0,35,-99.99,,,-99.99,,2013-04-23 20:21:00,
2013-04-23 14:31:00,41.0,13.0,-100.00,SW,235,8.0,15.0,30,-99.99,,,-99.99,,2013-04-23 20:31:00,
2013-04-23 14:41:00,41.0,13.0,-100.00,SW,235,8.0,15.0,30,-99.99,,,-99.99,,2013-04-23 20:41:00,
2013-04-23 14:52:00,43.0,12.0,-100.00,SW,215,11.0,21.0,27,-99.99,,,-99.99,,2013-04-23 20:52:00,
2013-04-23 15:01:00,43.0,12.0,-100.00,SW,215,11.0,21.0,27,-99.99,,,-99.99,,2013-04-23 21:01:00,
2013-04-23 15:11:00,42.0,10.0,-100.00,SW,220,7.0,17.0,26,-99.99,,,-99.99,,2013-04-23 21:11:00,
2013-04-23 15:21:00,42.0,10.0,-100.00,SW,220,7.0,17.0,26,-99.99,,,-99.99,,2013-04-23 21:21:00,
2013-04-23 15:32:00,41.0,9.0,-100.00,SW,215,7.0,19.0,26,-99.99,,,-99.99,,2013-04-23 21:32:00,
2013-04-23 15:43:00,41.0,9.0,-100.00,SW,215,7.0,19.0,26,-99.99,,,-99.99,,2013-04-23 21:43:00,
2013-04-23 15:52:00,41.0,9.0,-100.00,SW,215,7.0,19.0,26,-99.99,,,-99.99,,2013-04-23 21:52:00,
2013-04-23 16:02:00,43.0,10.0,-100.00,SW,215,7.0,16.0,24,-99.99,,,-99.99,,2013-04-23 22:02:00,
2013-04-23 16:12:00,44.0,9.0,-100.00,SW,220,2.0,15.0,23,-99.99,,,-99.99,,2013-04-23 22:12:00,
2013-04-23 16:22:00,44.0,9.0,-100.00,SW,220,2.0,15.0,23,-99.99,,,-99.99,,2013-04-23 22:22:00,
2013-04-23 16:33:00,44.0,10.0,-100.00,East,85,1.0,10.0,24,-99.99,,,-99.99,,2013-04-23 22:33:00,
2013-04-23 16:42:00,44.0,10.0,-100.00,East,85,1.0,10.0,24,-99.99,,,-99.99,,2013-04-23 22:42:00,
2013-04-23 16:52:00,42.0,8.0,-100.00,North,5,1.0,8.0,24,-99.99,,,-99.99,,2013-04-23 22:52:00,
2013-04-23 17:02:00,42.0,8.0,-100.00,North,5,1.0,8.0,24,-99.99,,,-99.99,,2013-04-23 23:02:00,
2013-04-23 17:12:00,42.0,9.0,-100.00,SW,220,6.0,9.0,24,-99.99,,,-99.99,,2013-04-23 23:12:00,
2013-04-23 17:22:00,42.0,9.0,-100.00,SW,220,6.0,9.0,24,-99.99,,,-99.99,,2013-04-23 23:22:00,
2013-04-23 17:31:00,42.0,7.0,-100.00,SW,220,6.0,14.0,22,-99.99,,,-99.99,,2013-04-23 23:31:00,
2013-04-23 17:42:00,42.0,7.0,-100.00,SW,220,6.0,14.0,22,-99.99,,,-99.99,,2013-04-23 23:42:00,
2013-04-23 17:52:00,41.0,8.0,-100.00,SSW,205,6.0,10.0,24,-99.99,,,-99.99,,2013-04-23 23:52:00,
2013-04-23 18:01:00,41.0,8.0,-100.00,SSW,205,6.0,10.0,24,-99.99,,,-99.99,,2013-04-24 00:01:00,
2013-04-23 18:11:00,41.0,7.0,-100.00,SE,140,1.0,11.0,23,-99.99,,,-99.99,,2013-04-24 00:11:00,
2013-04-23 18:21:00,41.0,7.0,-100.00,SE,140,1.0,11.0,23,-99.99,,,-99.99,,2013-04-24 00:21:00,
2013-04-23 18:32:00,41.0,6.0,-100.00,East,100,6.0,16.0,22,-99.99,,,-99.99,,2013-04-24 00:32:00,
2013-04-23 18:41:00,41.0,6.0,-100.00,East,100,6.0,16.0,22,-99.99,,,-99.99,,2013-04-24 00:41:00,
2013-04-23 18:51:00,40.0,6.0,-100.00,East,80,6.0,14.0,23,-99.99,,,-99.99,,2013-04-24 00:51:00,
2013-04-23 19:01:00,40.0,6.0,-100.00,East,80,6.0,14.0,23,-99.99,,,-99.99,,2013-04-24 01:01:00,
2013-04-23 19:11:00,40.0,6.0,-100.00,ESE,110,2.0,7.0,24,-99.99,,,-99.99,,2013-04-24 01:11:00,
2013-04-23 19:21:00,40.0,6.0,-100.00,ESE,110,2.0,7.0,24,-99.99,,,-99.99,,2013-04-24 01:21:00,
2013-04-23 19:31:00,40.0,7.0,-100.00,NE,35,0.0,5.0,24,-99.99,,,-99.99,,2013-04-24 01:31:00,
2013-04-23 19:42:00,40.0,7.0,-100.00,NE,35,0.0,5.0,24,-99.99,,,-99.99,,2013-04-24 01:42:00,
2013-04-23 19:52:00,39.0,7.0,-100.00,East,85,1.0,7.0,25,-99.99,,,-99.99,,2013-04-24 01:52:00,
2013-04-23 20:02:00,39.0,7.0,-100.00,East,85,1.0,7.0,25,-99.99,,,-99.99,,2013-04-24 02:02:00,
2013-04-23 20:33:00,37.0,7.0,-100.00,NNE,20,1.0,7.0,28,-99.99,,,-99.99,,2013-04-24 02:33:00,
2013-04-23 20:45:00,37.0,7.0,-100.00,NNE,20,1.0,7.0,28,-99.99,,,-99.99,,2013-04-24 02:45:00,
2013-04-23 20:52:00,37.0,8.0,-100.00,ENE,70,0.0,3.0,30,-99.99,,,-99.99,,2013-04-24 02:52:00,
2013-04-23 21:04:00,37.0,8.0,-100.00,ENE,70,0.0,3.0,30,-99.99,,,-99.99,,2013-04-24 03:04:00,
2013-04-23 21:12:00,36.0,8.0,-100.00,NNE,25,1.0,6.0,30,-99.99,,,-99.99,,2013-04-24 03:12:00,
2013-04-23 21:25:00,36.0,8.0,-100.00,NNE,25,1.0,6.0,30,-99.99,,,-99.99,,2013-04-24 03:25:00,
2013-04-23 21:34:00,36.0,10.0,-100.00,NE,35,4.0,6.0,32,-99.99,,,-99.99,,2013-04-24 03:34:00,
2013-04-23 21:46:00,36.0,10.0,-100.00,NE,35,4.0,6.0,32,-99.99,,,-99.99,,2013-04-24 03:46:00,
2013-04-23 21:53:00,35.0,10.0,-100.00,WSW,240,0.0,2.0,34,-99.99,,,-99.99,,2013-04-24 03:53:00,
2013-04-23 22:02:00,35.0,10.0,-100.00,WSW,240,0.0,2.0,34,-99.99,,,-99.99,,2013-04-24 04:02:00,
2013-04-23 22:12:00,34.0,11.0,-100.00,ENE,70,1.0,6.0,36,-99.99,,,-99.99,,2013-04-24 04:12:00,
2013-04-23 22:22:00,34.0,11.0,-100.00,ENE,70,1.0,6.0,36,-99.99,,,-99.99,,2013-04-24 04:22:00,
2013-04-23 22:33:00,34.0,11.0,-100.00,ENE,70,0.0,4.0,38,-99.99,,,-99.99,,2013-04-24 04:33:00,
2013-04-23 22:43:00,34.0,11.0,-100.00,ENE,70,0.0,4.0,38,-99.99,,,-99.99,,2013-04-24 04:43:00,
2013-04-23 22:52:00,33.0,11.0,-100.00,East,80,1.0,6.0,39,-99.99,,,-99.99,,2013-04-24 04:52:00,
2013-04-23 23:02:00,33.0,11.0,-100.00,East,80,1.0,6.0,39,-99.99,,,-99.99,,2013-04-24 05:02:00,
2013-04-23 23:12:00,33.0,13.0,-100.00,NE,50,1.0,3.0,42,-99.99,,,-99.99,,2013-04-24 05:12:00,
2013-04-23 23:21:00,33.0,13.0,-100.00,NE,50,1.0,3.0,42,-99.99,,,-99.99,,2013-04-24 05:21:00,
2013-04-23 23:32:00,32.0,12.0,-100.00,NNE,30,1.0,3.0,43,-99.99,,,-99.99,,2013-04-24 05:32:00,
2013-04-23 23:42:00,32.0,12.0,-100.00,NNE,30,1.0,3.0,43,-99.99,,,-99.99,,2013-04-24 05:42:00,
2013-04-23 23:51:00,31.0,12.0,-100.00,NE,35,2.0,4.0,43,-99.99,,,-99.99,,2013-04-24 05:51:00,